27-05-2023, 00:00:05,    103,    0.0,    6.7,   0.00,   0.00, 1025.9,   70.8, -999.0
27-05-2023, 00:00:14,    104,    0.0,    6.7,   0.00,   0.00, 1025.9,   71.0, -999.0
27-05-2023, 00:00:24,    104,    0.0,    6.8,   0.00,   0.00, 1025.9,   71.1, -999.0
27-05-2023, 00:00:34,    103,    0.0,    6.7,   0.00,   0.00, 1025.9,   71.3, -999.0
27-05-2023, 00:00:45,    104,    0.0,    6.7,   0.00,   0.00, 1025.9,   71.2, -999.0
27-05-2023, 00:00:54,    104,    0.0,    6.7,   0.00,   0.00, 1025.9,   71.2, -999.0
27-05-2023, 00:01:04,    103,    0.0,    6.8,   0.00,   0.00, 1025.9,   71.3, -999.0
27-05-2023, 00:01:14,    104,    0.0,    6.7,   0.00,   0.00, 1025.9,   71.2, -999.0
27-05-2023, 00:01:24,    104,    0.0,    6.6,   0.00,   0.00, 1025.9,   71.4, -999.0
27-05-2023, 00:01:34,    103,    0.0,    6.6,   0.00,   0.00, 1025.9,   71.7, -999.0
27-05-2023, 00:01:44,    104,    0.0,    6.7,   0.00,   0.00, 1025.9,   72.0, -999.0
27-05-2023, 00:01:54,    104,    0.0,    6.6,   0.00,   0.00, 1025.9,   72.0, -999.0
27-05-2023, 00:02:04,    104,    0.0,    6.6,   0.00,   0.00, 1025.9,   72.1, -999.0
27-05-2023, 00:02:14,    103,    0.0,    6.5,   0.00,   0.00, 1025.9,   72.3, -999.0
27-05-2023, 00:02:24,    104,    0.0,    6.5,   0.00,   0.00, 1025.9,   72.5, -999.0
27-05-2023, 00:02:34,    102,    0.0,    6.6,   0.00,   0.00, 1025.9,   72.8, -999.0
27-05-2023, 00:02:44,    104,    0.0,    6.5,   0.00,   0.00, 1025.9,   72.9, -999.0
27-05-2023, 00:02:54,    104,    0.0,    6.5,   0.00,   0.00, 1025.9,   73.1, -999.0
27-05-2023, 00:03:04,    104,    0.0,    6.5,   0.00,   0.00, 1025.9,   73.1, -999.0
27-05-2023, 00:03:14,    103,    0.0,    6.5,   0.00,   0.00, 1025.9,   73.1, -999.0
27-05-2023, 00:03:24,    103,    0.0,    6.4,   0.00,   0.00, 1025.9,   73.3, -999.0
27-05-2023, 00:03:34,    103,    0.0,    6.3,   0.00,   0.00, 1025.9,   73.5, -999.0
27-05-2023, 00:03:44,    103,    0.0,    6.5,   0.00,   0.00, 1025.9,   73.8, -999.0
27-05-2023, 00:03:54,    103,    0.0,    6.5,   0.00,   0.00, 1025.9,   74.0, -999.0
27-05-2023, 00:04:04,    103,    0.0,    6.5,   0.00,   0.00, 1025.9,   74.0, -999.0
27-05-2023, 00:04:14,    103,    0.0,    6.5,   0.00,   0.00, 1025.9,   74.1, -999.0
27-05-2023, 00:04:24,    104,    0.0,    6.4,   0.00,   0.00, 1025.9,   74.2, -999.0
27-05-2023, 00:04:34,    103,    0.0,    6.5,   0.00,   0.00, 1025.9,   74.4, -999.0
27-05-2023, 00:04:44,    104,    0.0,    6.5,   0.00,   0.00, 1025.9,   74.1, -999.0
27-05-2023, 00:04:54,    103,    0.0,    6.4,   0.00,   0.00, 1025.9,   74.2, -999.0
27-05-2023, 00:05:04,    104,    0.0,    6.4,   0.00,   0.00, 1025.9,   74.4, -999.0
27-05-2023, 00:05:14,    103,    0.0,    6.4,   0.00,   0.00, 1025.9,   74.4, -999.0
27-05-2023, 00:05:24,    103,    0.0,    6.5,   0.00,   0.00, 1025.9,   74.4, -999.0
27-05-2023, 00:05:34,    104,    0.0,    6.5,   0.00,   0.00, 1025.9,   74.5, -999.0
27-05-2023, 00:05:43,    104,    0.0,    6.4,   0.00,   0.00, 1025.9,   74.4, -999.0
27-05-2023, 00:05:54,    104,    0.0,    6.3,   0.00,   0.00, 1025.9,   74.4, -999.0
27-05-2023, 00:06:04,    103,    0.0,    6.4,   0.00,   0.00, 1025.9,   74.6, -999.0
27-05-2023, 00:06:14,    103,    0.0,    6.3,   0.00,   0.00, 1025.9,   74.7, -999.0
27-05-2023, 00:06:24,    104,    0.0,    6.2,   0.00,   0.00, 1025.9,   74.9, -999.0
27-05-2023, 00:06:34,    104,    0.0,    6.3,   0.00,   0.00, 1025.9,   74.9, -999.0
27-05-2023, 00:06:44,    103,    0.0,    6.3,   0.00,   0.00, 1025.9,   74.9, -999.0
27-05-2023, 00:06:53,    104,    0.0,    6.3,   0.00,   0.00, 1025.9,   75.0, -999.0
27-05-2023, 00:07:04,    103,    0.0,    6.3,   0.00,   0.00, 1025.9,   75.1, -999.0
27-05-2023, 00:07:14,    103,    0.0,    6.2,   0.00,   0.00, 1025.9,   75.2, -999.0
27-05-2023, 00:07:23,    104,    0.0,    6.3,   0.00,   0.00, 1025.9,   75.3, -999.0
27-05-2023, 00:07:33,    104,    0.0,    6.3,   0.00,   0.00, 1025.9,   75.4, -999.0
27-05-2023, 00:07:44,    104,    0.0,    6.2,   0.00,   0.00, 1025.9,   75.7, -999.0
27-05-2023, 00:07:53,      0,    0.0,    6.3,   0.00,   0.00, 1025.9,   76.0, -999.0
27-05-2023, 00:08:03,      2,    0.0,    6.2,   0.00,   0.00, 1025.9,   76.0, -999.0
27-05-2023, 00:08:13,      0,    0.0,    6.2,   0.00,   0.00, 1025.9,   76.2, -999.0
27-05-2023, 00:08:24,      0,    0.0,    6.2,   0.00,   0.00, 1025.9,   76.3, -999.0
27-05-2023, 00:08:33,      0,    0.0,    6.2,   0.00,   0.00, 1025.9,   76.4, -999.0
27-05-2023, 00:08:43,      0,    0.0,    6.2,   0.00,   0.00, 1025.9,   76.4, -999.0
27-05-2023, 00:08:53,      0,    0.0,    6.2,   0.00,   0.00, 1025.9,   76.4, -999.0
27-05-2023, 00:09:03,      0,    0.0,    6.2,   0.00,   0.00, 1025.9,   76.6, -999.0
27-05-2023, 00:09:13,      0,    0.0,    6.1,   0.00,   0.00, 1025.9,   76.8, -999.0
27-05-2023, 00:09:23,     16,    0.0,    6.2,   0.00,   0.00, 1025.9,   76.9, -999.0
27-05-2023, 00:09:33,      0,    0.0,    6.1,   0.00,   0.00, 1025.9,   77.1, -999.0
27-05-2023, 00:09:43,      0,    0.0,    6.2,   0.00,   0.00, 1025.9,   77.2, -999.0
27-05-2023, 00:09:53,      0,    0.0,    6.1,   0.00,   0.00, 1025.9,   77.4, -999.0
27-05-2023, 00:10:03,      0,    0.0,    6.2,   0.00,   0.00, 1025.9,   77.4, -999.0
27-05-2023, 00:10:13,      0,    0.0,    6.2,   0.00,   0.00, 1025.9,   77.3, -999.0
27-05-2023, 00:10:23,      0,    0.0,    6.2,   0.00,   0.00, 1025.9,   77.1, -999.0
27-05-2023, 00:10:33,      0,    0.0,    6.1,   0.00,   0.00, 1025.9,   77.1, -999.0
27-05-2023, 00:10:43,     12,    0.0,    6.1,   0.00,   0.00, 1025.9,   77.2, -999.0
27-05-2023, 00:10:53,      0,    0.0,    6.1,   0.00,   0.00, 1025.9,   77.1, -999.0
27-05-2023, 00:11:03,      0,    0.0,    6.1,   0.00,   0.00, 1025.9,   77.3, -999.0
27-05-2023, 00:11:13,      2,    0.0,    6.2,   0.00,   0.00, 1025.9,   77.4, -999.0
27-05-2023, 00:11:23,      0,    0.0,    6.1,   0.00,   0.00, 1025.9,   77.3, -999.0
27-05-2023, 00:11:33,      0,    0.0,    6.0,   0.00,   0.00, 1025.9,   77.3, -999.0
27-05-2023, 00:11:43,      0,    0.0,    6.1,   0.00,   0.00, 1025.9,   77.5, -999.0
27-05-2023, 00:11:53,      0,    0.0,    6.1,   0.00,   0.00, 1025.9,   77.6, -999.0
27-05-2023, 00:12:03,      0,    0.0,    6.0,   0.00,   0.00, 1025.9,   77.7, -999.0
27-05-2023, 00:12:13,      1,    0.0,    6.2,   0.00,   0.00, 1025.9,   77.8, -999.0
27-05-2023, 00:12:23,      6,    0.0,    6.1,   0.00,   0.00, 1025.8,   77.6, -999.0
27-05-2023, 00:12:33,      0,    0.0,    6.1,   0.00,   0.00, 1025.9,   77.7, -999.0
27-05-2023, 00:12:43,     15,    0.0,    6.1,   0.00,   0.00, 1025.9,   77.7, -999.0
27-05-2023, 00:12:53,     16,    0.0,    6.1,   0.00,   0.00, 1025.8,   77.8, -999.0
27-05-2023, 00:13:03,      4,    0.0,    6.1,   0.00,   0.00, 1025.9,   77.9, -999.0
27-05-2023, 00:13:13,      0,    0.0,    6.1,   0.00,   0.00, 1025.8,   77.9, -999.0
27-05-2023, 00:13:23,      0,    0.0,    6.0,   0.00,   0.00, 1025.8,   77.9, -999.0
27-05-2023, 00:13:33,      0,    0.0,    6.0,   0.00,   0.00, 1025.8,   77.9, -999.0
27-05-2023, 00:13:43,      0,    0.0,    6.0,   0.00,   0.00, 1025.8,   77.8, -999.0
27-05-2023, 00:13:53,      0,    0.0,    6.1,   0.00,   0.00, 1025.8,   78.0, -999.0
27-05-2023, 00:14:02,      8,    0.0,    6.1,   0.00,   0.00, 1025.8,   78.1, -999.0
27-05-2023, 00:14:13,      0,    0.0,    6.1,   0.00,   0.00, 1025.8,   78.1, -999.0
27-05-2023, 00:14:23,      0,    0.0,    6.1,   0.00,   0.00, 1025.8,   78.4, -999.0
27-05-2023, 00:14:33,      0,    0.0,    6.0,   0.00,   0.00, 1025.8,   78.4, -999.0
27-05-2023, 00:14:42,      0,    0.0,    6.1,   0.00,   0.00, 1025.8,   78.3, -999.0
27-05-2023, 00:14:53,     15,    0.0,    6.1,   0.00,   0.00, 1025.8,   78.1, -999.0
27-05-2023, 00:15:03,     14,    0.0,    6.1,   0.00,   0.00, 1025.8,   78.0, -999.0
27-05-2023, 00:15:12,      0,    0.0,    6.0,   0.00,   0.00, 1025.8,   78.1, -999.0
27-05-2023, 00:15:22,      0,    0.0,    6.0,   0.00,   0.00, 1025.8,   78.1, -999.0
27-05-2023, 00:15:33,      0,    0.0,    6.0,   0.00,   0.00, 1025.8,   78.1, -999.0
27-05-2023, 00:15:42,      0,    0.0,    6.1,   0.00,   0.00, 1025.8,   78.3, -999.0
27-05-2023, 00:15:52,      0,    0.0,    6.1,   0.00,   0.00, 1025.8,   78.3, -999.0
27-05-2023, 00:16:03,     15,    0.0,    6.0,   0.00,   0.00, 1025.8,   78.3, -999.0
27-05-2023, 00:16:12,     16,    0.0,    6.0,   0.00,   0.00, 1025.8,   78.3, -999.0
27-05-2023, 00:16:22,      0,    0.0,    6.1,   0.00,   0.00, 1025.8,   78.4, -999.0
27-05-2023, 00:16:32,      0,    0.0,    6.0,   0.00,   0.00, 1025.8,   78.4, -999.0
27-05-2023, 00:16:43,      0,    0.0,    6.0,   0.00,   0.00, 1025.8,   78.3, -999.0
27-05-2023, 00:16:52,      0,    0.0,    6.0,   0.00,   0.00, 1025.8,   78.5, -999.0
27-05-2023, 00:17:02,     15,    0.0,    5.9,   0.00,   0.00, 1025.8,   78.3, -999.0
27-05-2023, 00:17:12,     16,    0.0,    6.0,   0.00,   0.00, 1025.8,   78.4, -999.0
27-05-2023, 00:17:22,      0,    0.0,    5.9,   0.00,   0.00, 1025.8,   78.4, -999.0
27-05-2023, 00:17:32,      0,    0.0,    5.8,   0.00,   0.00, 1025.8,   78.4, -999.0
27-05-2023, 00:17:42,      0,    0.0,    6.0,   0.00,   0.00, 1025.7,   78.5, -999.0
27-05-2023, 00:17:52,      0,    0.0,    5.8,   0.00,   0.00, 1025.8,   78.5, -999.0
27-05-2023, 00:18:02,      0,    0.0,    5.9,   0.00,   0.00, 1025.8,   78.9, -999.0
27-05-2023, 00:18:12,      0,    0.0,    5.9,   0.00,   0.00, 1025.8,   79.0, -999.0
27-05-2023, 00:18:22,      0,    0.0,    5.9,   0.00,   0.00, 1025.8,   79.0, -999.0
27-05-2023, 00:18:32,      0,    0.0,    6.0,   0.00,   0.00, 1025.7,   79.2, -999.0
27-05-2023, 00:18:42,     16,    0.0,    5.9,   0.00,   0.00, 1025.8,   79.2, -999.0
27-05-2023, 00:18:52,     10,    0.0,    6.0,   0.00,   0.00, 1025.8,   79.2, -999.0
27-05-2023, 00:19:02,     15,    0.0,    5.9,   0.00,   0.00, 1025.8,   79.2, -999.0
27-05-2023, 00:19:12,     13,    0.0,    5.9,   0.00,   0.00, 1025.7,   79.3, -999.0
27-05-2023, 00:19:22,      0,    0.0,    5.9,   0.00,   0.00, 1025.8,   79.4, -999.0
27-05-2023, 00:19:32,      0,    0.0,    6.0,   0.00,   0.00, 1025.8,   79.5, -999.0
27-05-2023, 00:19:42,     12,    0.0,    5.9,   0.00,   0.00, 1025.8,   79.5, -999.0
27-05-2023, 00:19:52,      0,    0.0,    6.0,   0.00,   0.00, 1025.8,   79.4, -999.0
27-05-2023, 00:20:02,     12,    0.0,    5.9,   0.00,   0.00, 1025.8,   79.4, -999.0
27-05-2023, 00:20:12,      0,    0.0,    5.9,   0.00,   0.00, 1025.7,   79.5, -999.0
27-05-2023, 00:20:22,      0,    0.0,    5.9,   0.00,   0.00, 1025.7,   79.5, -999.0
27-05-2023, 00:20:32,      0,    0.0,    5.9,   0.00,   0.00, 1025.7,   79.5, -999.0
27-05-2023, 00:20:42,      0,    0.0,    5.9,   0.00,   0.00, 1025.7,   79.4, -999.0
27-05-2023, 00:20:52,      0,    0.0,    5.9,   0.00,   0.00, 1025.8,   79.2, -999.0
27-05-2023, 00:21:02,     15,    0.0,    5.9,   0.00,   0.00, 1025.7,   79.3, -999.0
27-05-2023, 00:21:12,     16,    0.0,    5.9,   0.00,   0.00, 1025.7,   79.3, -999.0
27-05-2023, 00:21:22,      0,    0.0,    5.9,   0.00,   0.00, 1025.8,   79.3, -999.0
27-05-2023, 00:21:32,     16,    0.0,    5.9,   0.00,   0.00, 1025.7,   79.2, -999.0
27-05-2023, 00:21:42,      0,    0.0,    5.9,   0.00,   0.00, 1025.8,   79.4, -999.0
27-05-2023, 00:21:51,      0,    0.0,    5.9,   0.00,   0.00, 1025.8,   79.4, -999.0
27-05-2023, 00:22:02,      0,    0.0,    5.8,   0.00,   0.00, 1025.7,   79.5, -999.0
27-05-2023, 00:22:12,      0,    0.0,    5.8,   0.00,   0.00, 1025.8,   79.6, -999.0
27-05-2023, 00:22:21,     12,    0.0,    5.9,   0.00,   0.00, 1025.7,   79.7, -999.0
27-05-2023, 00:22:31,      0,    0.0,    5.7,   0.00,   0.00, 1025.7,   79.8, -999.0
27-05-2023, 00:22:42,      0,    0.0,    5.8,   0.00,   0.00, 1025.7,   79.8, -999.0
27-05-2023, 00:22:52,      2,    0.0,    5.8,   0.00,   0.00, 1025.7,   79.8, -999.0
27-05-2023, 00:23:01,      0,    0.0,    5.9,   0.00,   0.00, 1025.8,   80.0, -999.0
27-05-2023, 00:23:11,      0,    0.0,    5.8,   0.00,   0.00, 1025.7,   80.0, -999.0
27-05-2023, 00:23:22,      0,    0.0,    5.8,   0.00,   0.00, 1025.7,   80.1, -999.0
27-05-2023, 00:23:31,      0,    0.0,    5.7,   0.00,   0.00, 1025.7,   80.3, -999.0
27-05-2023, 00:23:41,      0,    0.0,    5.7,   0.00,   0.00, 1025.7,   80.3, -999.0
27-05-2023, 00:23:52,     14,    0.0,    5.8,   0.00,   0.00, 1025.7,   80.4, -999.0
27-05-2023, 00:24:01,      0,    0.0,    5.8,   0.00,   0.00, 1025.7,   80.5, -999.0
27-05-2023, 00:24:11,      0,    0.0,    5.7,   0.00,   0.00, 1025.7,   80.6, -999.0
27-05-2023, 00:24:21,      0,    0.0,    5.7,   0.00,   0.00, 1025.7,   80.6, -999.0
27-05-2023, 00:24:32,      0,    0.0,    5.7,   0.00,   0.00, 1025.7,   80.7, -999.0
27-05-2023, 00:24:41,      0,    0.0,    5.7,   0.00,   0.00, 1025.7,   80.6, -999.0
27-05-2023, 00:24:51,      0,    0.0,    5.7,   0.00,   0.00, 1025.7,   80.8, -999.0
27-05-2023, 00:25:01,      0,    0.0,    5.7,   0.00,   0.00, 1025.7,   80.7, -999.0
27-05-2023, 00:25:11,      0,    0.0,    5.7,   0.00,   0.00, 1025.7,   80.9, -999.0
27-05-2023, 00:25:21,     13,    0.0,    5.8,   0.00,   0.00, 1025.7,   81.0, -999.0
27-05-2023, 00:25:31,     13,    0.0,    5.8,   0.00,   0.00, 1025.7,   80.9, -999.0
27-05-2023, 00:25:41,      0,    0.0,    5.7,   0.00,   0.00, 1025.7,   80.8, -999.0
27-05-2023, 00:25:51,      0,    0.0,    5.6,   0.00,   0.00, 1025.7,   80.9, -999.0
27-05-2023, 00:26:01,      0,    0.0,    5.7,   0.00,   0.00, 1025.7,   80.9, -999.0
27-05-2023, 00:26:11,      0,    0.0,    5.7,   0.00,   0.00, 1025.7,   81.0, -999.0
27-05-2023, 00:26:21,      0,    0.0,    5.7,   0.00,   0.00, 1025.7,   81.3, -999.0
27-05-2023, 00:26:31,      0,    0.0,    5.7,   0.00,   0.00, 1025.7,   81.4, -999.0
27-05-2023, 00:26:41,      0,    0.0,    5.7,   0.00,   0.00, 1025.7,   81.4, -999.0
27-05-2023, 00:26:51,      0,    0.0,    5.7,   0.00,   0.00, 1025.7,   81.4, -999.0
27-05-2023, 00:27:01,     15,    0.0,    5.6,   0.00,   0.00, 1025.7,   81.4, -999.0
27-05-2023, 00:27:11,      0,    0.0,    5.7,   0.00,   0.00, 1025.7,   81.3, -999.0
27-05-2023, 00:27:21,      0,    0.0,    5.7,   0.00,   0.00, 1025.7,   81.3, -999.0
27-05-2023, 00:27:31,      0,    0.0,    5.7,   0.00,   0.00, 1025.7,   81.3, -999.0
27-05-2023, 00:27:41,      0,    0.0,    5.6,   0.00,   0.00, 1025.7,   81.4, -999.0
27-05-2023, 00:27:51,     15,    0.0,    5.5,   0.00,   0.00, 1025.7,   81.3, -999.0
27-05-2023, 00:28:01,      0,    0.0,    5.6,   0.00,   0.00, 1025.7,   81.4, -999.0
27-05-2023, 00:28:11,      0,    0.0,    5.7,   0.00,   0.00, 1025.7,   81.5, -999.0
27-05-2023, 00:28:21,      0,    0.0,    5.6,   0.00,   0.00, 1025.7,   81.6, -999.0
27-05-2023, 00:28:31,      0,    0.0,    5.6,   0.00,   0.00, 1025.7,   81.7, -999.0
27-05-2023, 00:28:41,      0,    0.0,    5.5,   0.00,   0.00, 1025.7,   81.9, -999.0
27-05-2023, 00:28:51,      0,    0.0,    5.6,   0.00,   0.00, 1025.7,   81.9, -999.0
27-05-2023, 00:29:01,      0,    0.0,    5.6,   0.00,   0.00, 1025.7,   82.2, -999.0
27-05-2023, 00:29:11,      0,    0.0,    5.7,   0.00,   0.00, 1025.7,   82.5, -999.0
27-05-2023, 00:29:21,      0,    0.0,    5.6,   0.00,   0.00, 1025.7,   82.6, -999.0
27-05-2023, 00:29:30,      0,    0.0,    5.6,   0.00,   0.00, 1025.7,   82.5, -999.0
27-05-2023, 00:29:41,     14,    0.0,    5.6,   0.00,   0.00, 1025.7,   82.4, -999.0
27-05-2023, 00:29:51,      0,    0.0,    5.6,   0.00,   0.00, 1025.7,   82.4, -999.0
27-05-2023, 00:30:01,      0,    0.0,    5.6,   0.00,   0.00, 1025.7,   82.6, -999.0
27-05-2023, 00:30:10,      0,    0.0,    5.7,   0.00,   0.00, 1025.7,   82.7, -999.0
27-05-2023, 00:30:21,      0,    0.0,    5.5,   0.00,   0.00, 1025.7,   82.7, -999.0
27-05-2023, 00:30:31,      0,    0.0,    5.5,   0.00,   0.00, 1025.7,   82.6, -999.0
27-05-2023, 00:30:40,      0,    0.0,    5.5,   0.00,   0.00, 1025.7,   82.6, -999.0
27-05-2023, 00:30:50,      0,    0.0,    5.6,   0.00,   0.00, 1025.7,   82.4, -999.0
27-05-2023, 00:31:01,      0,    0.0,    5.5,   0.00,   0.00, 1025.7,   82.6, -999.0
27-05-2023, 00:31:11,      0,    0.0,    5.4,   0.00,   0.00, 1025.7,   82.5, -999.0
27-05-2023, 00:31:20,      0,    0.0,    5.6,   0.00,   0.00, 1025.7,   82.9, -999.0
27-05-2023, 00:31:30,      0,    0.0,    5.5,   0.00,   0.00, 1025.7,   83.0, -999.0
27-05-2023, 00:31:41,      0,    0.0,    5.5,   0.00,   0.00, 1025.7,   82.9, -999.0
27-05-2023, 00:31:50,      0,    0.0,    5.5,   0.00,   0.00, 1025.7,   82.9, -999.0
27-05-2023, 00:32:00,      0,    0.0,    5.4,   0.00,   0.00, 1025.7,   82.9, -999.0
27-05-2023, 00:32:11,      0,    0.0,    5.4,   0.00,   0.00, 1025.7,   82.8, -999.0
27-05-2023, 00:32:20,      0,    0.0,    5.5,   0.00,   0.00, 1025.7,   82.6, -999.0
27-05-2023, 00:32:30,     16,    0.0,    5.4,   0.00,   0.00, 1025.7,   82.9, -999.0
27-05-2023, 00:32:40,      0,    0.0,    5.5,   0.00,   0.00, 1025.7,   83.2, -999.0
27-05-2023, 00:32:50,      0,    0.0,    5.5,   0.00,   0.00, 1025.7,   83.5, -999.0
27-05-2023, 00:33:00,      0,    0.0,    5.5,   0.00,   0.00, 1025.7,   84.1, -999.0
27-05-2023, 00:33:10,      0,    0.0,    5.5,   0.00,   0.00, 1025.7,   84.3, -999.0
27-05-2023, 00:33:20,      0,    0.0,    5.6,   0.00,   0.00, 1025.7,   84.2, -999.0
27-05-2023, 00:33:30,      0,    0.0,    5.4,   0.00,   0.00, 1025.7,   84.2, -999.0
27-05-2023, 00:33:40,      0,    0.0,    5.4,   0.00,   0.00, 1025.7,   84.2, -999.0
27-05-2023, 00:33:50,      0,    0.0,    5.4,   0.00,   0.00, 1025.7,   84.3, -999.0
27-05-2023, 00:34:00,      0,    0.0,    5.5,   0.00,   0.00, 1025.7,   84.3, -999.0
27-05-2023, 00:34:10,     15,    0.0,    5.5,   0.00,   0.00, 1025.7,   84.4, -999.0
27-05-2023, 00:34:20,     17,    0.0,    5.5,   0.00,   0.00, 1025.7,   84.4, -999.0
27-05-2023, 00:34:30,      0,    0.0,    5.5,   0.00,   0.00, 1025.7,   84.6, -999.0
27-05-2023, 00:34:40,     14,    0.0,    5.4,   0.00,   0.00, 1025.7,   84.6, -999.0
27-05-2023, 00:34:50,      0,    0.0,    5.4,   0.00,   0.00, 1025.7,   84.7, -999.0
27-05-2023, 00:35:00,      0,    0.0,    5.4,   0.00,   0.00, 1025.7,   84.6, -999.0
27-05-2023, 00:35:10,      0,    0.0,    5.4,   0.00,   0.00, 1025.7,   84.7, -999.0
27-05-2023, 00:35:20,      0,    0.0,    5.4,   0.00,   0.00, 1025.7,   84.8, -999.0
27-05-2023, 00:35:30,     12,    0.0,    5.3,   0.00,   0.00, 1025.6,   84.8, -999.0
27-05-2023, 00:35:40,      0,    0.0,    5.4,   0.00,   0.00, 1025.7,   84.6, -999.0
27-05-2023, 00:35:50,      0,    0.0,    5.4,   0.00,   0.00, 1025.7,   84.5, -999.0
27-05-2023, 00:36:00,      0,    0.0,    5.4,   0.00,   0.00, 1025.7,   84.4, -999.0
27-05-2023, 00:36:10,      4,    0.0,    5.4,   0.00,   0.00, 1025.7,   84.4, -999.0
27-05-2023, 00:36:20,      0,    0.0,    5.4,   0.00,   0.00, 1025.7,   84.5, -999.0
27-05-2023, 00:36:30,      0,    0.0,    5.4,   0.00,   0.00, 1025.7,   84.8, -999.0
27-05-2023, 00:36:40,     13,    0.0,    5.2,   0.00,   0.00, 1025.7,   85.2, -999.0
27-05-2023, 00:36:50,      0,    0.0,    5.4,   0.00,   0.00, 1025.6,   85.5, -999.0
27-05-2023, 00:37:00,      0,    0.0,    5.4,   0.00,   0.00, 1025.7,   85.4, -999.0
27-05-2023, 00:37:10,      0,    0.0,    5.4,   0.00,   0.00, 1025.7,   85.3, -999.0
27-05-2023, 00:37:20,      0,    0.0,    5.4,   0.00,   0.00, 1025.7,   85.4, -999.0
27-05-2023, 00:37:30,      0,    0.0,    5.4,   0.00,   0.00, 1025.7,   85.4, -999.0
27-05-2023, 00:37:40,      0,    0.0,    5.4,   0.00,   0.00, 1025.7,   85.5, -999.0
27-05-2023, 00:37:49,      0,    0.0,    5.3,   0.00,   0.00, 1025.6,   85.9, -999.0
27-05-2023, 00:38:00,      0,    0.0,    5.4,   0.00,   0.00, 1025.6,   86.0, -999.0
27-05-2023, 00:38:10,      2,    0.0,    5.4,   0.00,   0.00, 1025.7,   85.9, -999.0
27-05-2023, 00:38:19,      0,    0.0,    5.4,   0.00,   0.00, 1025.6,   85.7, -999.0
27-05-2023, 00:38:29,      0,    0.0,    5.3,   0.00,   0.00, 1025.7,   85.6, -999.0
27-05-2023, 00:38:40,      0,    0.0,    5.3,   0.00,   0.00, 1025.7,   85.6, -999.0
27-05-2023, 00:38:50,      0,    0.0,    5.3,   0.00,   0.00, 1025.7,   85.7, -999.0
27-05-2023, 00:38:59,      0,    0.0,    5.3,   0.00,   0.00, 1025.7,   85.9, -999.0
27-05-2023, 00:39:09,     13,    0.0,    5.3,   0.00,   0.00, 1025.6,   86.1, -999.0
27-05-2023, 00:39:20,      0,    0.0,    5.2,   0.00,   0.00, 1025.6,   86.3, -999.0
27-05-2023, 00:39:29,      0,    0.0,    5.2,   0.00,   0.00, 1025.6,   86.4, -999.0
27-05-2023, 00:39:39,      0,    0.0,    5.3,   0.00,   0.00, 1025.6,   86.3, -999.0
27-05-2023, 00:39:49,      0,    0.0,    5.4,   0.00,   0.00, 1025.6,   86.6, -999.0
27-05-2023, 00:40:00,      0,    0.0,    5.3,   0.00,   0.00, 1025.6,   86.7, -999.0
27-05-2023, 00:40:09,      0,    0.0,    5.4,   0.00,   0.00, 1025.6,   86.9, -999.0
27-05-2023, 00:40:19,      0,    0.0,    5.4,   0.00,   0.00, 1025.6,   87.2, -999.0
27-05-2023, 00:40:29,     12,    0.0,    5.4,   0.00,   0.00, 1025.6,   87.6, -999.0
27-05-2023, 00:40:39,      0,    0.0,    5.4,   0.00,   0.00, 1025.6,   87.5, -999.0
27-05-2023, 00:40:49,      0,    0.0,    5.4,   0.00,   0.00, 1025.6,   87.3, -999.0
27-05-2023, 00:40:59,      0,    0.0,    5.3,   0.00,   0.00, 1025.6,   87.3, -999.0
27-05-2023, 00:41:09,      0,    0.0,    5.4,   0.00,   0.00, 1025.6,   87.3, -999.0
27-05-2023, 00:41:19,      0,    0.0,    5.3,   0.00,   0.00, 1025.6,   87.3, -999.0
27-05-2023, 00:41:29,     10,    0.0,    5.4,   0.00,   0.00, 1025.5,   87.4, -999.0
27-05-2023, 00:41:39,      0,    0.0,    5.4,   0.00,   0.00, 1025.6,   87.5, -999.0
27-05-2023, 00:41:49,      0,    0.0,    5.3,   0.00,   0.00, 1025.6,   87.2, -999.0
27-05-2023, 00:41:59,      0,    0.0,    5.4,   0.00,   0.00, 1025.6,   87.0, -999.0
27-05-2023, 00:42:09,      0,    0.0,    5.3,   0.00,   0.00, 1025.6,   87.0, -999.0
27-05-2023, 00:42:19,      0,    0.0,    5.3,   0.00,   0.00, 1025.5,   86.9, -999.0
27-05-2023, 00:42:29,      0,    0.0,    5.3,   0.00,   0.00, 1025.5,   86.8, -999.0
27-05-2023, 00:42:39,      0,    0.0,    5.3,   0.00,   0.00, 1025.6,   86.7, -999.0
27-05-2023, 00:42:49,      0,    0.0,    5.3,   0.00,   0.00, 1025.5,   86.8, -999.0
27-05-2023, 00:42:59,      0,    0.0,    5.2,   0.00,   0.00, 1025.6,   86.9, -999.0
27-05-2023, 00:43:09,      0,    0.0,    5.2,   0.00,   0.00, 1025.6,   86.8, -999.0
27-05-2023, 00:43:19,      0,    0.0,    5.2,   0.00,   0.00, 1025.6,   86.8, -999.0
27-05-2023, 00:43:29,     11,    0.0,    5.1,   0.00,   0.00, 1025.6,   86.8, -999.0
27-05-2023, 00:43:39,      0,    0.0,    5.1,   0.00,   0.00, 1025.5,   86.8, -999.0
27-05-2023, 00:43:49,      3,    0.0,    5.1,   0.00,   0.00, 1025.5,   86.9, -999.0
27-05-2023, 00:43:59,      0,    0.0,    5.1,   0.00,   0.00, 1025.5,   87.2, -999.0
27-05-2023, 00:44:09,      0,    0.0,    5.1,   0.00,   0.00, 1025.5,   87.4, -999.0
27-05-2023, 00:44:19,      0,    0.0,    5.1,   0.00,   0.00, 1025.5,   87.7, -999.0
27-05-2023, 00:44:29,      0,    0.0,    5.1,   0.00,   0.00, 1025.5,   87.9, -999.0
27-05-2023, 00:44:39,      0,    0.0,    5.1,   0.00,   0.00, 1025.5,   88.0, -999.0
27-05-2023, 00:44:49,      0,    0.0,    5.0,   0.00,   0.00, 1025.5,   88.6, -999.0
27-05-2023, 00:44:59,      0,    0.0,    5.1,   0.00,   0.00, 1025.5,   89.1, -999.0
27-05-2023, 00:45:09,      0,    0.0,    5.1,   0.00,   0.00, 1025.5,   89.5, -999.0
27-05-2023, 00:45:19,      0,    0.0,    5.2,   0.00,   0.00, 1025.5,   89.8, -999.0
27-05-2023, 00:45:28,      0,    0.0,    5.2,   0.00,   0.00, 1025.5,   90.2, -999.0
27-05-2023, 00:45:39,      0,    0.0,    5.1,   0.00,   0.00, 1025.5,   90.2, -999.0
27-05-2023, 00:45:49,      0,    0.0,    5.2,   0.00,   0.00, 1025.5,   90.2, -999.0
27-05-2023, 00:45:59,      0,    0.0,    5.2,   0.00,   0.00, 1025.5,   90.4, -999.0
27-05-2023, 00:46:08,      0,    0.0,    5.1,   0.00,   0.00, 1025.5,   90.8, -999.0
27-05-2023, 00:46:19,      0,    0.0,    5.2,   0.00,   0.00, 1025.5,   91.2, -999.0
27-05-2023, 00:46:29,     15,    0.0,    5.2,   0.00,   0.00, 1025.5,   91.2, -999.0
27-05-2023, 00:46:38,     14,    0.0,    5.2,   0.00,   0.00, 1025.5,   91.1, -999.0
27-05-2023, 00:46:48,      0,    0.0,    5.2,   0.00,   0.00, 1025.5,   91.1, -999.0